OpenBCM V1.13 (Linux)

Packet Radio Mailbox

DB0FHN

[JN59NK Nuernberg]

 Login: GUEST





  
I0OJJ  > AMSAT    03.09.26 03:03l 331 Lines 15650 Bytes #999 (0) @ WW
BID : 57F_IR0EQ
Read: OE5RCO GUEST DJ6UX
Subj: 2Line Orbital Elements
Path: DB0FHN<OE2XZR<OK1TOR<SR6DWH<SR1BSZ<EA2RCF<IR0EQ
Sent: 260903/0026z @:IR0EQ.ITA.EU [Rome] $:57F_IR0EQ

>From i0ojj@rgate.ampr.org Thu Sep  3 02:26:22 2026
Received: from rgate.ampr.org by rgate.ampr.org (JNOS2.0q.1) with SMTP
	id AA6747 ; Thu, 03 Sep 2026 02:26:22 +0200
Received: by rgate.ampr.org with SMTP
	id AA6744 ; Thu, 03 Sep 2026 02:25:50 +0200
Message-Id: <6745@rgate.ampr.org>
>From: i0ojj@rgate.ampr.org

SB KEPS @ AMSAT  $ORB26246.1
2Line Orbital Elements 26246.AMSAT

QST de W1STR

AMSAT Orbital Elements for Amateur Satellites in TLE Format
>From Orbital Analysis Office
New England Sci-Tech STEM Education Center
Natick MA September 03, 2026
To all radio amateurs


These element sets describe the orbits of various satellites 
in use by the amateur radio community. For details see:
www.amsat.org/keplerian-elements-formats/

A daily update of element sets is available at:
www.amsat.org/tle/daily-bulletin.txt
or without bulletin text:
www.amsat.org/tle/dailytle.txt


AO-07
1 07530U 74089B   26245.56724390 -.00000052  00000-0 -35506-4 0  9990
2 07530 101.9920 259.6231 0012165 345.4087 168.4061 12.53699396370215
UO-11
1 14781U 84021B   26244.86798372  .00001040  00000-0  11093-3 0  9996
2 14781  97.8144 209.6282 0006198 296.5601  63.4981 14.90962908268553
LO-19
1 20442U 90005G   26245.48509511  .00000032  00000-0  28016-4 0  9994
2 20442  98.8834 269.4132 0011179 344.9381  15.1468 14.34141442913479
AO-27
1 22825U 93061C   26245.19530259  .00000040  00000-0  32330-4 0  9990
2 22825  98.6814 312.5556 0007517 229.2028 130.8503 14.30958887718019
FO-29
1 24278U 96046B   26245.49673662 -.00000038  00000-0 -21677-6 0  9992
2 24278  98.5181  83.7711 0348841 255.7747 100.4415 13.53277573483620
GO-32
1 25397U 98043D   26245.47180548  .00000016  00000-0  27103-4 0  9990
2 25397  99.0139 240.2038 0001639  36.3951 323.7338 14.24440957462331
ISS
1 25544U 98067A   26245.46626010  .00004070  00000-0  82080-4 0  9997
2 25544  51.6313 277.6073 0005029  99.7358 260.4199 15.48970443583732
NO-44
1 26931U 01043C   26244.84889002  .00000039  00000-0  45375-4 0  9996
2 26931  67.0505  45.9838 0005659 271.0383  89.0070 14.31979976301422
SO-50
1 27607U 02058C   26245.22666677  .00000601  00000-0  88577-4 0  9994
2 27607  64.5503 250.5995 0072679 248.3334 111.0022 14.83189992275881
CO-55
1 27844U 03031E   26244.95754982  .00000165  00000-0  90494-4 0  9991
2 27844  98.6768 252.5619 0008903 329.2871  30.7786 14.24375401202605
RS-22
1 27939U 03042A   26245.62520466  .00000433  00000-0  74735-4 0  9999
2 27939  98.3485  72.1907 0011974  28.6527  40.5100 14.73583764226959
CO-65
1 32785U 08021C   26245.59337235  .00002519  00000-0  15877-3 0  9990
2 32785  97.8359 228.6915 0010228 119.7020 240.5228 15.10073681996878
CO-66
1 32791U 08021J   26244.97863961  .00012816  00000-0  37757-3 0  9990
2 32791  97.7565 246.7042 0004262  66.7315 293.4376 15.35177425999067
RS-30
1 32953U 08025A   26245.59888537  .00000024  00000-0  10350-3 0  9997
2 32953  82.5047 307.2974 0020443 140.5655 219.6917 12.43182493829316
SRMSAT
1 37841U 11058D   26245.49832234  .00000355  00000-0  49064-4 0  9992
2 37841  19.9726 311.5171 0011747 335.5827 157.6174 14.11589959768757
ZACUBE-1
1 39417U 13066B   26245.18311792  .00004022  00000-0  30869-3 0  9998
2 39417  97.8084 207.8972 0041172 355.6308   4.4551 15.01699639692287
Delfi-N3xt
1 39428U 13066N   26245.52436205  .00004676  00000-0  40165-3 0  9990
2 39428  97.8288 165.7898 0071687 310.3468  49.1506 14.95966691686188
GOMX-1
1 39430U 13066Q   26245.60264690  .00001588  00000-0  24316-3 0  9998
2 39430  97.6443  81.1860 0127708 188.0847 171.8304 14.69659946681287
LO-74
1 39440U 13066AA  26244.81694991  .00002734  00000-0  25238-3 0  9990
2 39440  97.8965 194.1670 0058298 131.9225 228.6987 14.94201482688435
AO-73
1 39444U 13066AE  26244.92796092  .00005140  00000-0  31247-3 0  9992
2 39444  97.8365 218.0610 0033933 304.3870  55.4151 15.10453772691246
DTUSAT-2
1 40030U 14033W   26244.96200917  .00004870  00000-0  25813-3 0  9991
2 40030  98.0916 247.6348 0007117 346.1075  13.9958 15.15892031664318
LILACSAT-2
1 40908U 15049K   26245.54383977  .00012609  00000-0  19713-3 0  9997
2 40908  97.4579 285.4321 0005486 345.1902  14.9190 15.53907738607753
Lapan A3
1 41603U 16040E   26245.65480096  .00002014  00000-0  64324-4 0  9992
2 41603  97.1556 239.3036 0012131  96.5708 263.6917 15.33533755566683
CAS-2T
1 41847U 16066G   26245.18189890  .00000444  00000-0  72473-4 0  9995
2 41847  98.3767 320.0351 0340055 255.8684 100.4504 14.44823008515914
TechnoSat
1 42829U 17042E   26244.96742732  .00002191  00000-0  15669-3 0  9990
2 42829  97.4393  39.7692 0017217 186.5196 173.5810 15.05343138498258
AO-91
1 43017U 17073E   26245.18001140  .00006314  00000-0  26857-3 0  9992
2 43017  97.4581 110.8230 0149218  62.8001 298.8350 15.13732857477036
S-Net D
1 43186U 18014G   26245.30728338  .00002812  00000-0  14445-3 0  9993
2 43186  97.5263 149.6128 0009775 106.9336 253.2970 15.17289024470450
S-Net B
1 43187U 18014H   26245.25434860  .00002715  00000-0  13969-3 0  9994
2 43187  97.5268 149.5489 0010446 103.5039 256.7359 15.17257292470445
S-Net A
1 43188U 18014J   26245.30574122  .00002875  00000-0  14755-3 0  9998
2 43188  97.5279 149.8238 0010327 103.9461 256.2922 15.17297371470458
S-Net C
1 43189U 18014K   26245.32464330  .00002736  00000-0  14070-3 0  9996
2 43189  97.5296 149.9291 0011735  98.0421 262.2145 15.17247597469000
Ten-Koh
1 43677U 18084G   26245.27986780  .00001440  00000-0  11132-3 0  9994
2 43677  98.0758  80.9023 0008649 212.1720 147.8977 15.03211461427741
PO-101
1 43678U 18084H   26245.58720127  .00001144  00000-0  95447-4 0  9993
2 43678  98.1188  85.2020 0010738 271.1799  88.8193 15.00697400427829
QO-100
1 43700U 18090A   26245.24870544  .00000146  00000-0  00000+0 0  9995
2 43700   0.0244 241.3946 0002655 317.1353 258.2127  1.00272845 28440
MinXSS-2
1 43758U 18099A   26245.19645625  .00032607  00000-0  53562-3 0  9993
2 43758  97.4461 324.0156 0005500 347.0328  13.0782 15.52328374426056
AO-95
1 43770U 18099N   26245.11752866  .00007958  00000-0  29188-3 0  9993
2 43770  97.4308 305.1308 0009898  79.5968 280.6387 15.28196807424968
SNUSat 2
1 43782U 18099AA  26245.10460579  .00005175  00000-0  22347-3 0  9991
2 43782  97.3981 297.3328 0010719  34.9580 325.2358 15.22887829424734
SnugLite
1 43784U 18099AC  26245.42116982  .00006347  00000-0  23043-3 0  9990
2 43784  97.3793 298.9930 0003454  46.1401 314.0124 15.28651759425115
ITASat 1
1 43786U 18099AE  26245.13636466  .00004033  00000-0  19051-3 0  9998
2 43786  97.3954 295.1283 0014028  85.2785 275.0052 15.19898979424598
EAGLET 1
1 43790U 18099AJ  26245.55389517  .00002693  00000-0  15402-3 0  9997
2 43790  97.4160 293.1700 0012616  80.3946 279.8710 15.13440793424034
ESEO
1 43792U 18099AL  26245.53828978  .00000283  00000-0  24386-4 0  9991
2 43792  97.3918 279.6030 0013691  71.9260 288.3457 15.04438959423437
JO-97
1 43803U 18099AX  26245.15795822  .00011342  00000-0  32612-3 0  9991
2 43803  97.4050 308.3564 0005125  12.9635 347.1740 15.35955015425436
Suomi 100
1 43804U 18099AY  26245.41777020  .00007378  00000-0  25589-3 0  9990
2 43804  97.4107 305.5833 0009630  16.7702 343.3855 15.30061507425221
ISAT
1 43879U 18111D   26245.33378211  .00262877  00000-0  98564-3 0  9997
2 43879  97.5803 187.5472 0007032 112.9981 247.2033 15.87185362423301
UWE-4
1 43880U 18111E   26245.31022273  .00028132  00000-0  48683-3 0  9992
2 43880  97.5814 177.5197 0009094  58.9374 301.2769 15.50863867422717
Sparrow
1 43881U 18111F   26228.98401838  .16116594  28263-5  19760-3 0  9992
2 43881  97.5857 177.1140 0010462 202.8700 157.2139 16.49385238421037
Prox-1
1 44339U 19036A   26244.59620286  .00008497  00000-0  78523-3 0  9994
2 44339  23.9957 323.1819 0005234 194.3026 165.7326 14.92231047384891
Taurus 1
1 44530U 19059C   26245.57430271  .00004747  00000-0  75059-3 0  9999
2 44530  98.6491  55.2819 0009435  71.9595 288.2638 14.72798086370034
TO-108
1 44881U 19093C   26245.58609269  .00000346  00000-0  45023-4 0  9992
2 44881  97.7471 315.9105 0013040 185.9259 174.1805 14.86620150362913
RS-44
1 44909U 19096E   26245.55912996  .00000009  00000-0 -12264-5 0  9996
2 44909  82.5192 288.2986 0216761 323.7215  34.9350 12.79749137312240
SALSAT
1 46495U 20068K   26245.30390043  .00005030  00000-0  17176-3 0  9998
2 46495  97.8887 253.1350 0010499  41.0020 319.2007 15.30774627327158
CSS (TIANHE-1)
1 48274U 21035A   26245.54682553  .00011867  00000-0  14919-3 0  9993
2 48274  41.4680 212.3806 0002103 255.8013 104.2592 15.59519691305240
TeikyoSat 4
1 49396U 21102B   26245.07581228  .00001261  00000-0  81821-4 0  9993
2 49396  97.3642 271.5679 0012858  35.3251 324.8828 15.09739417264322
Z-Sat
1 49399U 21102E   26245.55895731  .00004155  00000-0  20236-3 0  9993
2 49399  97.3278 278.5399 0015919 342.9936  17.0763 15.18787970265185
KOSEN 1
1 49402U 21102H   26245.05703943  .00004623  00000-0  17271-3 0  9991
2 49402  97.3122 285.7472 0011613 298.6724  61.3347 15.27800070265759
HO-113
1 50466U 21131B   26245.59413645  .00000425  00000-0  14482-3 0  9998
2 50466  98.4977 337.5641 0003310 211.7677 148.3313 14.41417614246260
SNUGLITE 2
1 52899U 22065F   26245.30953263  .00000616  00000-0  12552-3 0  9999
2 52899  98.2313  30.0560 0008364 135.3665 224.8212 14.64467601222281
UmKA 1 (RS40S)
1 57172U 23091G   26245.58157368  .00003750  00000-0  16920-3 0  9995
2 57172  97.4973 303.9921 0011865 202.0477 158.0250 15.21570927175770
CubeBel-2 (EU11S)
1 57175U 23091K   26245.55217673  .00008080  00000-0  27334-3 0  9993
2 57175  97.4974 309.5263 0009117 191.1288 168.9752 15.30847797176130
RS-38S
1 57189U 23091Z   26245.48289254  .00012308  00000-0  32817-3 0  9994
2 57189  97.5018 316.6173 0007747 145.1399 215.0355 15.38272670176563
